Regional Weather Roundup
Issued by NWS State College, PA

Home | Current Version | Previous Version | Text Only | Print | Product List | Glossary Off
Versions: 1 2 3 4 5 6 7 8 9 10 11 12 13 14 15 16 17 18 19 20 21 22 23 24 25 26 27 28 29 30 31 32 33 34 35 36 37 38 39 40 41 42 43 44 45 46 47 48 49 50

000
ASUS41 KCTP 172110
RWRCTP

REGIONAL WEATHER ROUNDUP
NATIONAL WEATHER SERVICE STATE COLLEGE PA
400 PM EST TUE JAN 17 2017

Note: "fair" indicates few or no clouds below 12,000 feet with no
significant weather and/or obstructions to visibility.

* = STATION THAT DOES NOT REPORT PRECIPITATION /E.G. RAIN...SNOW...ETC/
    THUNDER OR FOG.

PAZ002>004-007>009-013>016-020>023-029>032-172200-
WESTERN PENNSYLVANIA

CITY           SKY/WX    TMP DP  RH WIND       PRES   REMARKS
ERIE           CLOUDY    52  48  86 W18G26    29.79R
MEADVILLE      CLOUDY    55  49  80 W17G23    29.79R
FRANKLIN*        N/A     54  52  94 SW7       29.81S
NEW CASTLE     MOCLDY    58  54  86 SW9       29.82S
BEAVER COUNTY  CLOUDY    55  52  88 W9        29.83R
BUTLER*        PTSUNNY   57  52  82 W8        29.85R
PITTSBURGH INT PTSUNNY   61  53  75 SW13G24   29.81R
PITTSBURGH     CLOUDY    60  51  72 SW16      29.82F
INDIANA*       CLOUDY    59  55  88 SW14      29.86S
LATROBE        PTSUNNY   57  57 100 SW17G29   29.86F
WASHINGTON CO* NOT AVBL
$$

PAZ004>006-010>012-017>019-024>028-033>037-041-042-045-046-049>053-172200-
CENTRAL PENNSYLVANIA

CITY           SKY/WX    TMP DP  RH WIND       PRES   REMARKS
BRADFORD       LGT RAIN  44  44 100 S5        29.81S FOG
DUBOIS         FOG       47  45  93 SE6       29.81S VSB 1/4
CLEARFIELD     CLOUDY    40  40 100 N7        29.86S FOG
JOHNSTOWN      CLOUDY    55  53  93 SW10      29.86S
ALTOONA        LGT RAIN  41  39  93 CALM      29.91S FOG
STATE COLLEGE  CLOUDY    37  36  93 CALM      29.92F FOG
WILLIAMSPORT   RAIN      37  35  92 NE9       29.97S FOG
SELINSGROVE    CLOUDY    36  36 100 CALM      30.00R FOG
FT INDIANTOWN  LGT RAIN  37  37 100 NE5       30.00S FOG
CAPITAL CITY   RAIN      41  38  89 E6        30.00S FOG
HARRISBURG     RAIN      40  40 100 SE9       29.99S FOG
YORK           CLOUDY    42  41  96 S3        29.99R FOG
$$

PAZ038>040-043-044-047-048-054-055-060>062-067>071-172200-
EASTERN PENNSYLVANIA

CITY           SKY/WX    TMP DP  RH WIND       PRES   REMARKS
SCRANTON       LGT RAIN  38  37  97 NE6       29.99R FOG
MOUNT POCONO   FRZ RAIN  31  30  96 SE9       29.98S VSB 1/4
ALLENTOWN      LGT RAIN  38  33  82 E6        30.04F
QUAKERTOWN*    CLOUDY    39  36  87 E5        30.04S
READING        CLOUDY    41  37  86 CALM      30.02S FOG
LANCASTER      RAIN      42  42 100 SE5       30.01S FOG
COATESVILLE    FOG       41  41 100 SE7       30.01F VSB 1/2
POTTSTOWN      CLOUDY    41  37  86 E6        30.03F FOG
BLUE BELL      CLOUDY    41  37  87 E6        30.03F
DOYLESTOWN     CLOUDY    42  37  82 CALM      30.03F
WILLOW GROVE   NOT AVBL
NORTH PHILA    CLOUDY    45  41  86 E9        30.06F FOG
PHILADELPHIA   LGT RAIN  45  41  86 E5        30.04F FOG
$$




USA.gov is the U.S. government's official web portal to all federal, state and local government web resources and services.